www.pogodaiklimat.ru

Погода и климат >> Архив погоды >> Япония >> Куттян


ПОГОДА в Куттяне

  • Прогноз погоды в Куттяне
  • Монитор погоды в Куттяне

АРХИВ ПОГОДЫ в Куттяне

Время (UTC), дата Ветер
(напр.,м/с)
 
Видим.   Явления Облачность Т
(С)
Тd
(С)
f
(%)
Тe
(С)
Тes
(С)
Комфортность P
(гПа)
Po
(гПа)
Тmin
(С)
Tmax
(С)
R
(мм)
R24
(мм)
S
(см)
10 12.07 ЮВ 7 20 км слаб. дождь н/о +17.6 +15.2 86 +17 +17 1002.9 981.1
11 12.07 В 12 17 км слаб. дождь н/о +18.1 +15.4 84 +17 +17 1003.1 981.4
12 12.07 В 9 20 км слаб. дождь н/о +17.7 +15.2 85 +17 +17 1002.6 980.9 +18.6 3
13 12.07 ЮВ 8 20 км слаб. дождь н/о +18.1 +15.2 83 +17 +17 1003.0 981.3
14 12.07 ЮВ 10 20 км в посл. час дождь н/о +17.9 +15.2 84 +17 +17 1002.0 980.3
15 12.07 ЮВ 11 20 км слаб. дождь н/о +17.8 +15.3 85 +16 +16 1001.9 980.2
16 12.07 ЮВ 7 8000 м дождь н/о +16.9 +15.3 90 +16 +16 1002.2 980.4
17 12.07 В 10 15 км слаб. дождь н/о +16.9 +15.3 90 +15 +15 1001.7 979.9
18 12.07 В 9 20 км в посл. час дождь н/о +17.0 +14.8 87 +15 +15 1001.3 979.5 3
19 12.07 В 12 20 км н/о +17.4 +14.9 85 +16 +16 1001.1 979.4
20 12.07 В 9 20 км н/о +17.5 +15.0 85 +16 +16 1001.7 980.0
21 12.07 В 9 20 км н/о +17.4 +15.2 87 +16 +16 1001.7 980.0
22 12.07 В 8 20 км н/о +18.4 +15.5 83 +18 +18 1002.2 980.5
23 12.07 ЮВ 5 20 км н/о +18.6 +15.5 82 +19 +19 1002.3 980.6
00 13.07 В 4 20 км н/о +19.7 +16.2 80 +22 +22 комфорт 1002.2 980.6 +16.6 3
01 13.07 Ю 4 20 км н/о +21.5 +16.5 73 +25 +25 комфорт 1002.2 980.8
02 13.07 ЮЗ 8 20 км н/о +22.4 +16.9 71 +27 +27 душно 1001.8 980.5
03 13.07 Ю 7 20 км н/о +21.9 +16.6 72 +26 +26 душно 1002.1 980.7
04 13.07 Ю 5 20 км н/о +23.1 +16.7 67 +28 +28 душно 1002.1 980.8
05 13.07 Ю 5 20 км н/о +23.0 +16.8 68 +28 +28 душно 1002.2 980.9
06 13.07 Ю 6 20 км н/о +23.2 +16.7 67 +28 +28 душно 1002.3 981.0
07 13.07 Ю 3 20 км н/о +21.4 +15.9 71 +25 +25 комфорт 1002.6 981.2
08 13.07 ЮВ 4 20 км слаб. дождь н/о +20.4 +17.0 81 +24 +24 комфорт 1002.8 981.3
09 13.07 В 4 20 км слаб. дождь н/о +19.0 +17.0 88 +20 +20 1003.3 981.7
10 13.07 В 3 8000 м слаб. дождь н/о +17.9 +17.1 95 +18 +18 1003.7 982.0
11 13.07 В 4 9000 м слаб. дождь н/о +17.5 +17.0 97 +17 +17 1004.5 982.7
12 13.07 В 4 20 км слаб. дождь н/о +17.5 +17.0 97 +17 +17 1004.8 983.0 +24.3 2
13 13.07 В 2 15 км слаб. дождь н/о +17.7 +17.1 96 +18 +18 1004.9 983.1
14 13.07 Ю 2 20 км слаб. дождь н/о +18.0 +16.9 93 +19 +19 1005.1 983.3
15 13.07 В 1 16 км слаб. дождь н/о +17.7 +17.1 96 +19 +19 1005.0 983.2
16 13.07 ЮВ 3 20 км слаб. дождь н/о +17.6 +17.0 96 +18 +18 1005.1 983.3
17 13.07 ЮВ 2 20 км слаб. дождь н/о +17.3 +16.8 97 +18 +18 1005.0 983.2
18 13.07 В 1 20 км в посл. час дождь н/о +17.5 +17.2 98 +19 +19 1005.0 983.2 6
19 13.07 ЮВ 2 20 км н/о +17.9 +16.9 94 +19 +19 1005.0 983.2
20 13.07 В 2 20 км н/о +17.7 +16.7 94 +18 +18 1005.1 983.3
21 13.07 В 3 20 км в посл. час дождь н/о +18.3 +17.2 93 +19 +19 1005.0 983.3
22 13.07 В 2 20 км н/о +19.4 +17.2 87 +22 +22 комфорт 1005.1 983.4
23 13.07 ЮЗ 3 20 км н/о +20.3 +17.5 84 +24 +24 комфорт 1004.8 983.2
00 14.07 В 3 20 км {дождь} н/о +21.6 +17.6 78 +26 +26 душно 1004.6 983.1 +17.2 6
01 14.07 В 4 20 км н/о +23.8 +17.8 69 +28 +28 душно 1004.4 983.1
02 14.07 В 6 20 км н/о +23.7 +17.5 68 +28 +28 душно 1004.4 983.1
03 14.07 В 5 20 км н/о +24.0 +17.3 66 +28 +28 душно 1004.6 983.3
04 14.07 Ю 3 20 км н/о +23.3 +18.4 74 +29 +29 душно 1004.7 983.4
05 14.07 В 3 20 км н/о +22.2 +17.4 74 +27 +27 душно 1005.2 983.8
06 14.07 Ю 5 20 км в посл. час дождь н/о +21.8 +17.8 78 +26 +26 душно 1005.4 983.9 0.0
07 14.07 ЮВ 2 20 км н/о +21.3 +17.3 78 +25 +25 комфорт 1005.6 984.1
08 14.07 Ю 3 20 км н/о +20.8 +17.0 79 +25 +25 комфорт 1005.8 984.3
09 14.07 ЮВ 3 20 км н/о +20.5 +16.9 80 +24 +24 комфорт 1006.3 984.7
10 14.07 З 3 20 км н/о +19.8 +16.8 83 +23 +23 комфорт 1006.9 985.2
11 14.07 Ю 2 20 км н/о +19.2 +16.3 83 +21 +21 комфорт 1007.4 985.7
12 14.07 Ю 2 20 км н/о +18.6 +16.2 86 +20 +20 1007.9 986.1 +24.4 0.0
13 14.07 ЮЗ 5 20 км н/о +18.2 +16.2 88 +18 +18 1008.2 986.4
14 14.07 Ю 5 20 км н/о +17.9 +16.1 89 +18 +18 1008.3 986.5
15 14.07 Ю 5 20 км н/о +17.7 +15.9 89 +17 +17 1008.5 986.6
16 14.07 Ю 4 20 км н/о +17.4 +15.9 91 +17 +17 1008.5 986.6
17 14.07 Ю 5 20 км н/о +17.2 +15.9 92 +17 +17 1008.8 986.9
18 14.07 Ю 4 20 км н/о +16.9 +15.6 92 +16 +16 1009.2 987.3
19 14.07 Ю 4 20 км н/о +16.8 +15.5 92 +16 +16 1009.8 987.8
20 14.07 Ю 4 20 км н/о +16.8 +15.5 92 +16 +16 1010.2 988.2
21 14.07 Ю 3 20 км н/о +17.1 +15.5 90 +17 +17 1010.5 988.5
22 14.07 Ю 4 20 км н/о +17.8 +15.8 88 +18 +18 1010.8 988.9
23 14.07 Ю 3 20 км н/о +18.7 +16.0 84 +20 +20 1010.8 989.0
00 15.07 Ю 2 20 км н/о +19.3 +15.6 79 +22 +22 комфорт 1010.9 989.1 +16.7
01 15.07 ЮЗ 2 20 км н/о +21.2 +16.4 74 +25 +25 комфорт 1010.9 989.3
02 15.07 Ю 2 20 км н/о +21.1 +16.1 73 +24 +24 комфорт 1010.9 989.3
03 15.07 ЮВ 2 20 км н/о +22.3 +16.4 69 +27 +27 душно 1010.8 989.3
04 15.07 Ю 4 20 км н/о +22.3 +17.2 73 +27 +27 душно 1010.8 989.3
05 15.07 Ю 4 20 км н/о +21.9 +17.3 75 +26 +26 душно 1011.2 989.6
06 15.07 ЮЗ 6 20 км н/о +20.2 +16.7 80 +23 +23 комфорт 1011.7 990.0
07 15.07 Ю 4 20 км н/о +19.9 +16.2 79 +22 +22 комфорт 1012.2 990.4
08 15.07 Ю 3 20 км н/о +19.9 +15.8 77 +23 +23 комфорт 1012.2 990.4
09 15.07 В 3 20 км н/о +19.5 +16.4 82 +22 +22 комфорт 1012.4 990.6
10 15.07 ЮВ 2 20 км н/о +18.9 +16.2 84 +21 +21 комфорт 1012.9 991.0
11 15.07 Ю 3 20 км н/о +18.1 +15.0 82 +18 +18 1013.8 991.9
12 15.07 Ю 6 20 км н/о +17.1 +14.2 83 +16 +16 1014.4 992.4 +23.5
13 15.07 Ю 5 18 км н/о +16.4 +14.2 87 +16 +16 1014.8 992.7
14 15.07 Ю 5 14 км н/о +15.9 +14.1 89 +15 +15 1014.9 992.7
15 15.07 Ю 6 15 км н/о +15.9 +14.1 89 +14 +14 1015.2 993.0
16 15.07 Ю 5 15 км н/о +15.7 +14.1 90 +15 +15 1015.2 993.0
17 15.07 Ю 4 16 км н/о +15.6 +13.8 89 +15 +15 1015.1 992.9
18 15.07 ЮВ 2 15 км н/о +15.3 +14.0 92 +15 +15 1015.3 993.1
19 15.07 Ю 3 15 км н/о +15.2 +13.8 91 +15 +15 1015.4 993.2
20 15.07 Ю 3 14 км н/о +14.6 +13.7 94 +14 +14 1015.6 993.3
21 15.07 В 3 20 км н/о +15.5 +13.7 89 +15 +15 1015.8 993.6
22 15.07 ЮВ 2 20 км н/о +17.1 +14.2 83 +17 +17 1016.0 993.9
23 15.07 Ю 4 20 км н/о +19.5 +14.1 71 +21 +21 комфорт 1015.9 994.0
00 16.07 Ю 5 20 км н/о +20.6 +15.0 70 +23 +23 комфорт 1015.7 993.9 +14.4
01 16.07 ЮЗ 6 20 км н/о +22.3 +16.6 70 +27 +27 душно 1015.4 993.8
02 16.07 ЮЗ 7 20 км н/о +22.6 +16.4 68 +27 +27 душно 1015.1 993.5
03 16.07 ЮЗ 8 20 км н/о +22.9 +16.7 68 +28 +28 душно 1014.6 993.0
04 16.07 ЮЗ 7 20 км н/о +23.7 +17.0 66 +27 +27 жарко 1014.3 992.8
05 16.07 Ю 7 20 км н/о +23.8 +17.3 67 +28 +28 душно 1013.8 992.3
06 16.07 Ю 7 20 км н/о +22.9 +16.9 69 +28 +28 душно 1013.8 992.3
07 16.07 ЮЗ 7 20 км н/о +22.3 +17.0 72 +27 +27 душно 1014.1 992.5
08 16.07 ЮЗ 8 20 км н/о +21.1 +16.7 76 +25 +25 комфорт 1014.3 992.6
09 16.07 Ю 5 20 км н/о +20.3 +16.6 79 +23 +23 комфорт 1014.4 992.6
10 16.07 Ю 5 20 км н/о +19.6 +16.8 84 +22 +22 комфорт 1014.4 992.6
11 16.07 Ю 6 20 км н/о +18.8 +16.6 87 +20 +20 1015.1 993.2
12 16.07 ЮЗ 6 20 км н/о +18.5 +16.5 88 +19 +19 1015.4 993.5 +24.6
13 16.07 Ю 5 20 км н/о +18.2 +16.5 90 +18 +18 1015.2 993.2
14 16.07 Ю 4 20 км н/о +17.9 +16.6 92 +18 +18 1015.4 993.4
15 16.07 Ю 5 20 км н/о +17.8 +16.5 92 +17 +17 1014.8 992.8
16 16.07 Ю 4 20 км н/о +17.6 +16.5 93 +17 +17 1014.5 992.5
17 16.07 Ю 5 20 км н/о +17.1 +16.3 95 +16 +16 1014.5 992.5
18 16.07 Ю 4 20 км н/о +16.9 +16.3 96 +16 +16 1014.7 992.6
19 16.07 Ю 4 20 км н/о +17.3 +16.2 93 +17 +17 1014.7 992.7
20 16.07 В 3 20 км н/о +16.3 +15.3 94 +16 +16 1014.8 992.7
21 16.07 ЮВ 3 20 км н/о +18.6 +16.9 90 +20 +20 1014.6 992.7
22 16.07 Ю 4 20 км н/о +19.7 +17.1 85 +22 +22 комфорт 1014.4 992.6
23 16.07 ЮЗ 6 20 км н/о +21.2 +17.2 78 +25 +25 комфорт 1014.2 992.5
00 17.07 Ю 5 20 км н/о +22.1 +17.7 76 +27 +27 душно 1013.9 992.3 +16.0
01 17.07 Ю 5 20 км н/о +23.9 +18.8 73 +29 +29 душно 1013.5 992.0
02 17.07 ЮЗ 7 20 км н/о +25.1 +18.6 67 +30 +30 душно 1013.1 991.7
03 17.07 ЮЗ 7 20 км н/о +24.9 +19.1 70 +30 +30 душно 1013.0 991.6
04 17.07 ЮЗ 8 20 км н/о +24.6 +18.8 70 +29 +29 душно 1012.8 991.4
05 17.07 ЮЗ 8 20 км н/о +24.6 +18.8 70 +29 +29 душно 1012.7 991.3
06 17.07 ЮЗ 9 20 км н/о +24.1 +19.0 73 +29 +29 душно 1012.6 991.2
07 17.07 ЮЗ 7 20 км н/о +22.8 +18.6 77 +29 +29 очень
душно
1012.7 991.2
08 17.07 ЮЗ 5 20 км н/о +21.8 +18.6 82 +27 +27 душно 1012.9 991.3
09 17.07 ЮЗ 5 20 км н/о +21.0 +18.6 86 +25 +25 комфорт 1013.1 991.4
11 17.07 Ю 4 20 км н/о +20.2 +18.5 90 +24 +24 комфорт 1013.3 991.5
12 17.07 Ю 3 20 км н/о +20.0 +18.5 91 +23 +23 комфорт 1013.7 991.9 +25.5
13 17.07 ЮЗ 5 20 км н/о +20.0 +18.5 91 +23 +23 комфорт 1013.6 991.8
14 17.07 Ю 4 20 км н/о +19.7 +18.4 92 +22 +22 комфорт 1013.5 991.7
15 17.07 ЮЗ 5 20 км н/о +19.3 +18.3 94 +21 +21 комфорт 1013.4 991.6
16 17.07 Ю 4 20 км н/о +19.4 +18.2 93 +22 +22 комфорт 1013.1 991.3
17 17.07 Ю 4 20 км н/о +19.0 +18.0 94 +21 +21 комфорт 1013.4 991.5
18 17.07 Ю 4 20 км н/о +19.0 +18.0 94 +21 +21 комфорт 1013.4 991.5
19 17.07 Ю 3 20 км н/о +18.8 +18.2 96 +20 +20 1013.1 991.2
20 17.07 ЮЗ 3 20 км н/о +19.0 +18.0 94 +21 +21 комфорт 1013.0 991.1
21 17.07 Ю 4 20 км н/о +19.4 +18.2 93 +22 +22 комфорт 1013.1 991.3
22 17.07 ЮЗ 5 20 км н/о +19.5 +18.3 93 +22 +22 комфорт 1013.1 991.3
23 17.07 ЮЗ 6 20 км н/о +20.3 +18.3 88 +24 +24 комфорт 1013.1 991.4
00 18.07 ЮЗ 5 20 км н/о +22.2 +18.8 81 +28 +28 душно 1012.8 991.2 +18.6
01 18.07 ЮЗ 7 20 км н/о +21.8 +18.8 83 +27 +27 душно 1012.8 991.2
02 18.07 ЮЗ 6 20 км н/о +25.0 +18.2 66 +29 +29 душно 1012.0 990.7
03 18.07 Ю 6 20 км н/о +24.2 +17.7 67 +28 +28 душно 1012.0 990.6
04 18.07 ЮЗ 8 20 км н/о +25.2 +17.2 61 +29 +29 душно 1011.5 990.2
05 18.07 ЮЗ 7 20 км н/о +24.4 +17.4 65 +28 +28 душно 1011.6 990.2
06 18.07 ЮЗ 5 20 км н/о +24.7 +18.6 69 +29 +29 душно 1011.1 989.8
07 18.07 ЮЗ 6 20 км н/о +24.2 +18.6 71 +29 +29 душно 1011.3 989.9
08 18.07 ЮЗ 6 20 км н/о +23.3 +18.6 75 +29 +29 душно 1011.5 990.0
09 18.07 ЮЗ 4 20 км н/о +22.6 +18.6 78 +28 +28 душно 1011.1 989.6
10 18.07 ЮЗ 3 20 км н/о +21.7 +18.9 84 +27 +27 душно 1011.3 989.7
11 18.07 ЮЗ 5 20 км н/о +21.2 +18.8 86 +26 +26 душно 1011.9 990.3
12 18.07 В 2 20 км н/о +20.7 +18.7 88 +26 +26 душно 1012.2 990.5 +26.7
13 18.07 ЮЗ 2 20 км н/о +20.0 +18.3 90 +24 +24 комфорт 1012.3 990.5
14 18.07 ЮВ 2 20 км н/о +19.2 +17.4 89 +22 +22 комфорт 1012.1 990.3
15 18.07 Ю 4 20 км н/о +19.3 +18.0 92 +21 +21 комфорт 1011.6 989.8
16 18.07 Ю 4 19 км н/о +18.8 +17.8 94 +20 +20 1011.2 989.4
17 18.07 Ю 4 17 км н/о +18.4 +17.8 96 +19 +19 1011.0 989.1
18 18.07 Ю 2 15 км н/о +18.0 +17.5 97 +19 +19 1011.2 989.3
19 18.07 Ю 4 20 км н/о +18.5 +17.7 95 +19 +19 1011.1 989.2
20 18.07 Ю 2 17 км н/о +18.1 +17.6 97 +19 +19 1011.0 989.1
21 18.07 ЮЗ 3 20 км н/о +18.6 +17.8 95 +20 +20 1011.1 989.3
22 18.07 Ю 2 20 км н/о +20.5 +18.3 87 +25 +25 комфорт 1011.1 989.4
23 18.07 ЮВ 2 20 км н/о +22.4 +19.0 81 +28 +28 душно 1010.9 989.4
00 19.07 ЮЗ 3 20 км н/о +24.2 +19.3 74 +29 +29 душно 1010.6 989.2 +17.8
01 19.07 ЮЗ 3 20 км н/о +25.7 +20.3 72 +32 +32 очень
душно
1010.5 989.2
02 19.07 ЮЗ 5 20 км н/о +25.7 +19.6 69 +31 +31 очень
душно
1010.2 989.0
03 19.07 Ю 3 20 км слаб. дождь н/о +23.0 +19.8 82 +30 +30 очень
душно
1010.9 989.4
04 19.07 ЮЗ 7 н/о н/о +22.0 +19.0 83 +27 +27 душно 1011.2 989.6
05 19.07 ЮЗ 5 20 км н/о +21.3 +18.7 85 +26 +26 душно 1011.5 989.9
06 19.07 В 4 20 км слаб. дождь н/о +21.4 +19.2 87 +26 +26 душно 1011.2 989.6 0.0
07 19.07 ЮЗ 6 20 км в посл. час дождь н/о +22.1 +19.3 84 +28 +28 душно 1010.9 989.4
08 19.07 Ю 5 20 км н/о +21.8 +19.4 86 +27 +27 душно 1011.3 989.7
09 19.07 Ю 3 20 км {дождь} н/о +21.3 +18.9 86 +26 +26 душно 1012.0 990.4

 

Местоположение метеостанции Куттян (Япония): широта 42.90 долгота 140.75 высота над уровнем моря 188 м.

В архиве по умолчанию представлена погода в Куттяне за последнюю неделю. Архивные данные за месяц целиком и за предыдущие месяцы, начиная с января 2011 года, Вы можете получить, выбрав интересующий диапазон дат из раскрывающегося списка и нажав кнопку "Ввод!".


*Определитесь, кто Вы:
робот инопланетянин человек

Внимание! Время в таблицах - всемирное. Для получения местного времени необходимо прибавить поправку, которая равна 9 ч.

Смотрите также архив погоды в соседних городах и на ближайших метеорологических станциях:

Погода в Отару (Япония) (38 км)
Погода в Суццу (Япония) (45 км)
Погода в Саппоро (Япония) (51 км)
Погода в Муроране (Япония) (67 км)
Погода в Томакомае (Япония) (72 км)
Погода в Ивамидзаве (Япония) (91 км)
Погода в Хакодате (Япония) (120 км)
Погода в Эсаси (Япония) (126 км)
Погода в Румои (Япония) (137 км)
Погода в Асахикаве (Япония) (162 км)

Пояснения к столбцам:

Ветер - указаны скорость ветра в м/с - средняя за 10 мин, порывы в срок и между сроками (в фигурных скобках) и направление, откуда дует ветер: С - северный, СВ - северо-восточный, В - восточный, ЮВ - юго-восточный, Ю - южный, ЮЗ - юго-западный, З - западный, СЗ - северо-западный.
Видимость - горизонтальная дальность видимости в метрах или километрах. При видимости от 1 до 10 км при отсутствии осадков обычно наблюдается дымка, при ухудшении видимости до 1 км и менее - туман. В сухую погоду видимость может ухудшаться дымом, пылью или мглою.
Явления - указаны атмосферные явления, наблюдавшиеся в срок или в последний час перед сроком; фигурными скобками обозначены явления, наблюдавшиеся между сроками (за 1-3 часа до срока); квадратными скобками обозначены град или гололедные отложения с указанием их диаметра в мм.
Облачность - указаны через наклонную черту общая и нижняя облачность в баллах и высота нижней границы облаков в метрах; квадратными скобками обозначены формы облаков: Ci - перистые, Cs - перисто-слоистые, Cc - перисто-кучевые, Ac - высококучевые, As - высокослоистые, Sc - слоисто-кучевые, Ns - слоисто-дождевые, Cu - кучевые, Cb - кучево-дождевые. Подробнее классификацию облаков см. в Атласе облаков (PDF).
T - Температура воздуха - температура, измеренная на высоте 2 м над землей.
Td - Температура точки росы - температура, при понижении до которой содержащийся в воздухе водяной пар достигнет насыщения.
f - Относительная влажность воздуха - влажноcть воздуха, измеренная на высоте 2 м над землей.
Te - Эффективная температура - температура, которую ощущает одетый по сезону человек в тени. Характеристика душности погоды. При расчете учитывается влияние влажности воздуха и скорости ветра на теплоощущения человека.
Tes - Эффективная температура на солнце - температура, которую ощущает человек, с поправкой на солнечный нагрев. Характеристика знойности погоды. Зависит от высоты солнца над горизонтом, облачности и скорости ветра. Ночью, в пасмурную погоду, а также при ветре 12 м/с и более поправка равна нулю.
P - Атмосферное давление - приведенное к уровню моря атмосферное давление.
Po - Атмосферное давление - измеренное на уровне метеостанции атмосферное давление.
Tmin - Минимальная температура - минимум температуры воздуха на высоте 2 м над землей.
Tmax - Максимальная температура - максимум температуры воздуха на высоте 2 м над землей.
R - Количество осадков - Количество выпавших осадков за период времени, мм. При наведении курсора мыши на число - период времени, за который выпало указанное количество осадков.
R24 - Количество осадков - Количество выпавших осадков за 24 часа, мм.
S - Снежный покров - Высота снежного покрова, см. При наведении курсора мыши на число - состояние снежного покрова и степень покрытия местности в баллах.